Location: Fort Wayne
(41.1310°N, 85.1290°W)
Time: 23:22:39
(UTC-04:00)

SR - Visible Passes

Search period start: 24 May 2016 00:00
Search period end: 03 June 2016 00:00
Orbit: 581 x 877 km, 66.7° (Epoch: 24 May)

Date Brightness Start Highest point End Pass type
(mag) Time Alt. Az. Time Alt. Az. Time Alt. Az.
24 May ? 01:47:35 10° NNW 01:51:39 33° NE 01:51:51 33° ENE visible
24 May ? 03:30:01 10° WNW 03:31:15 16° WNW 03:31:15 16° WNW visible
25 May ? 00:58:58 10° N 01:02:01 18° NE 01:03:22 16° ENE visible
25 May ? 02:40:09 10° NW 02:42:45 32° NW 02:42:45 32° NW visible
26 May ? 01:50:49 10° NNW 01:54:20 51° N 01:54:20 51° N visible
27 May ? 01:01:49 10° NNW 01:05:49 31° NE 01:05:57 31° NE visible
27 May ? 02:44:09 10° NW 02:45:22 16° WNW 02:45:22 16° WNW visible
28 May ? 00:13:14 10° N 00:16:12 17° NE 00:17:38 15° ENE visible
28 May ? 01:54:21 10° NW 01:57:02 34° NW 01:57:02 34° NW visible
29 May ? 01:05:02 10° NNW 01:08:45 55° NNE 01:08:45 55° NNE visible
30 May ? 00:16:03 10° N 00:19:59 30° NE 00:20:30 29° ENE visible
30 May ? 01:58:18 10° NW 01:59:54 18° WNW 01:59:54 18° WNW visible
30 May ? 23:27:31 10° N 23:30:21 16° NE 23:32:17 13° ENE visible
31 May ? 01:08:32 10° NW 01:11:42 43° WNW 01:11:42 43° WNW visible
01 Jun ? 00:19:14 10° NNW 00:23:31 61° NE 00:23:31 61° NE visible
01 Jun ? 23:30:17 10° N 23:34:09 29° NE 23:35:23 25° E visible
02 Jun ? 01:12:27 10° NW 01:14:48 23° W 01:14:48 23° W visible
02 Jun ? 22:41:47 10° N 22:44:30 16° NE 22:47:08 10° E visible
